COSMOS 1564

Satellite information

Favourite Embed

Satellite Type and Status

PAYLOADIN ORBIT

Key statistics

Satellite COSMOS 1564 at a glance.

Uptime

15180

Days in orbit

Revolutions

≈ 12.5

Per day

Orbit

LEO

Low Earth Orbit

Inclination

74.0

Latest

Satellite identification and parameters

Extended collection of information and parameters for COSMOS 1564.

Object identification

Identified? True

Debris? False

Object name: COSMOS 1564

International designator: 1984-052F

Object number (NORAD): 15003

Object ID (CCSDS): 15003

Country: COMMONWEALTH OF INDEPENDENT STATES (CIS)

Current information (Y/N): Y

RCS size: MEDIUM

Orbital parameters

Period: 114.871 minutes

Inclination: 74.0137 deg

SMA: 7827.685 km

Apoapsis: 1475.758 km

Periapsis: 1423.342 km

RAAN: 59.7616 deg

Eccentricy: 0.00334813

Argument of periapsis: 221.3187 deg

Mean anomaly: 204.3608 deg

Mean motion: 12.53582086 rev/day

Mean motion (dot): -0.00000007 rev/day2

B* drag term: 0.000060027549 1/REarth

Two-line elements (TLE)

Creation date: Dec. 18, 2025, 8:02 p.m.

Reference frame: TEME

Reference center: EARTH

Epoch: Dec. 18, 2025, 1:20 p.m. UTC

TLE line 0: 0 COSMOS 1564

TLE line 1: 1 15003U 84052F 25352.55566270 -.00000007 00000-0 60028-4 0 9999

TLE line 2: 2 15003 74.0137 59.7616 0033481 221.3187 204.3608 12.53582086901632

Live tracking on map

Real-time ground track for satellite COSMOS 1564.

In-orbit conjunctions

There are no conjunctions computed for COSMOS 1564, at the moment. Check back to stay up to date, as we update our databases every day.

Go to all conjunctions

Associated space launch

Military communications satellites

COSMOS 1564 was lifted into orbit during the mission ‘Kosmos-3M | Strela-1M 281-288’, on board a Kosmos-3M space rocket.

The launch took place on May 28, 1984, 9:52 p.m. from 132/2.

For more information about the launch, click the button.

Launch to space Kosmos-3M | Strela-1M 281-288
Kosmos-3M | Strela-1M 281-288

Agency: N/A

Status: Launch Successful

Launch date: May 28, 1984, 9:52 p.m. UTC

Rocket: Kosmos-3M

Launch pad: 132/2

Location: Plesetsk Cosmodrome, Russian Federation

...

Latest news about this satellite

There are no fresh news available about this satellite. Check back as we update our databases every day.


Newsletter sign-up

Weekly statistics, charts and insights to help you stay on top of the space industry.